www.pogodaiklimat.ru

Погода и климат >> Архив погоды >> Гана >> Кет-Крачи


ПОГОДА в Кет-Крачи

  • Прогноз погоды в Кет-Крачи
  • Монитор погоды в Кет-Крачи

АРХИВ ПОГОДЫ в Кет-Крачи

Время (UTC), дата Ветер
(напр.,м/с)
 
Видим.   Явления Облачность Т
(С)
Тd
(С)
f
(%)
Тe
(С)
Тes
(С)
Комфортность P
(гПа)
Po
(гПа)
Тmin
(С)
Tmax
(С)
R
(мм)
R24
(мм)
S
(см)
09 18.05 ЮЗ 2 24 км 9/3 450 м
[Cu med, cong Ac trans Cs]
+29.0 +25.7 82 +43 +48 опасность
перегрева
1012.0 998.1
12 18.05 Ю 2 26 км 6/5 480 м
[Cu med, cong Ac trans Ci sp]
+32.0 +26.0 71 +48 +57 опасность
перегрева
1010.7 997.0
18 18.05 ЮВ 1 22 км 8/3 400 м
[Sc Ac trans]
+32.0 +26.0 71 +48 +48 опасность
перегрева
1008.6 994.9 +33.7
21 18.05 штиль 0 18 км 6/3 360 м
[Sc Ac trans Ci sp]
+29.5 +26.9 86 +46 +46 опасность
перегрева
1010.6 996.8
00 19.05 штиль 0 18 км 5/0
[Ci sp]
+28.5 +25.8 85 +42 +42 опасность
перегрева
1011.5 997.6
03 19.05 ЮЗ 3 18 км 6/0
[Ac trans Ci sp]
+28.0 +25.3 85 +41 +41 опасность
перегрева
1010.5 996.6
06 19.05 ЮЗ 2 20 км 8/4 360 м
[Sc Ac trans Ci sp]
+27.0 +25.3 90 +39 +39 очень
душно
1011.3 997.3 +26.6
09 19.05 ЮВ 2 22 км 9/8 400 м
[Cu Sc Ac trans]
+29.8 +26.1 81 +45 +47 опасность
перегрева
1012.9 999.1
12 19.05 ЮВ 2 24 км 6/4 480 м
[Cu med, cong Ci sp]
+32.0 +26.7 74 +49 +62 опасность
перегрева
1011.6 997.9
15 19.05 ЮВ 2 26 км 6/0 300 м
[Ac As Cs]
+33.5 +24.4 59 +46 +54 опасность
перегрева
1008.4 994.8
18 19.05 штиль 0 20 км 9/0
[Ac trans Cs]
+32.5 +26.6 71 +49 +49 опасность
перегрева
1008.5 994.8 +34.0
21 19.05 Ю 2 16 км 9/0
[Ac trans Cs]
+30.0 +23.9 70 +41 +41 опасность
перегрева
1010.7 996.9
00 20.05 ЮЗ 2 16 км 8/0
[Ac trans Ci fib]
+28.0 +23.9 78 +39 +39 очень
душно
1012.0 998.1
03 20.05 ЮЗ 1 16 км 9/3 400 м
[Sc Ac trans]
+27.0 +24.3 85 +38 +38 очень
душно
1011.6 997.6
06 20.05 штиль 0 18 км 9/5 400 м
[Sc Ac trans]
+26.5 +24.5 89 +37 +37 очень
душно
1012.0 998.0 +26.2
21 20.05 ЮЗ 1 12 км в посл. час дождь {гроза} 9/6 400 м
[Sc Ac trans]
+26.0 +23.9 88 +36 +36 очень
душно
1012.9 998.9
00 21.05 СЗ 1 16 км {дождь, метель} 9/9 400 м
[]
+25.3 +23.9 92 +35 +35 очень
душно
1012.7 998.7 0.4
03 21.05 ЮЗ 1 16 км 9/0
[Ac trans Ci sp]
+24.7 +23.5 93 +33 +33 очень
душно
1010.9 996.8
09 21.05 ЮВ 2 20 км 9/3 400 м
[Cu Sc Ac trans Cs]
+28.3 +23.2 74 +38 +43 очень
душно
1013.8 999.9
12 21.05 СВ 2 22 км 9/9 400 м
[Cu Sc]
+31.4 +24.8 68 +45 +47 опасность
перегрева
1013.5 999.7
15 21.05 ЮВ 2 24 км 9/4 480 м
[Cu med, cong Cs]
+32.5 +24.4 62 +45 +50 опасность
перегрева
1010.0 996.3
18 21.05 ЮЗ 1 20 км 9/3 400 м
[Sc Ac trans Cs]
+30.2 +23.7 68 +41 +41 опасность
перегрева
1009.5 995.7 +32.5
21 21.05 ЮЗ 1 17 км 9/0
[Ac trans Ci sp]
+28.0 +24.2 80 +39 +39 очень
душно
1010.8 996.9
00 22.05 штиль 0 18 км 9/3 400 м
[Sc Ac trans]
+27.0 +24.6 87 +38 +38 очень
душно
1012.3 998.3
03 22.05 штиль 0 18 км 9/5 400 м
[Sc Ac trans]
+2.6 +24.4 100 +1 +1 1010.6 995.4
06 22.05 штиль 0 20 км 9/4 400 м
[Sc Ac trans]
+25.2 +23.8 92 +34 +34 очень
душно
1011.4 997.4 +24.6
09 22.05 ЮЗ 2 24 км 6/4 480 м
[Cu med, cong Ci sp]
+29.5 +24.8 76 +42 +49 опасность
перегрева
1013.5 999.6
12 22.05 ЮЗ 2 24 км 8/4 500 м
[Cu med, cong Ac trans Ci sp]
+32.0 +24.6 65 +45 +54 опасность
перегрева
1011.9 998.2
15 22.05 ЮЗ 1 26 км 8/4 540 м
[Cu med, cong Ac trans Cs]
+33.5 +24.1 58 +45 +51 опасность
перегрева
1009.0 995.4
21 22.05 ЮЗ 1 16 км 8/0
[Cs]
+29.5 +25.5 79 +43 +43 опасность
перегрева
1010.7 996.9
06 23.05 ЮЗ 2 20 км 9/5 400 м
[Sc Ac trans Cs]
+27.0 +24.8 88 +39 +39 очень
душно
1011.0 997.1 +26.5
09 23.05 ЮВ 2 24 км 6/5 480 м
[Cu med, cong Ac trans Ci sp]
+29.5 +25.5 79 +43 +49 опасность
перегрева
1011.9 998.1
15 23.05 ЮВ 2 24 км гроза без осадков 9/5 480 м
[Cb cap Ac trans]
+32.2 +24.1 62 +44 +47 опасность
перегрева
1008.8 995.1
18 23.05 ЮЗ 1 22 км {гроза} 9/4 400 м
[Cb cap Ac trans]
+31.0 +25.7 73 +46 +46 опасность
перегрева
1008.8 995.1 +34.0
21 23.05 ЮЗ 2 18 км зарница 9/4 400 м
[Cb cap Ac trans]
+29.2 +25.6 81 +43 +43 опасность
перегрева
1010.9 997.1
00 24.05 ЮЗ 2 18 км зарница 9/4 400 м
[Cb cap Ac trans]
+28.0 +25.3 85 +41 +41 опасность
перегрева
1011.9 998.0
03 24.05 ЮЗ 2 18 км в посл. час гроза 9/3 400 м
[Sc Ac trans]
+28.6 +24.8 80 +41 +41 опасность
перегрева
1009.5 995.6
06 24.05 ЮЗ 1 20 км {гроза} 9/4 400 м
[Sc Ac trans]
+26.5 +24.5 89 +37 +37 очень
душно
1010.3 996.3 +26.0
09 24.05 ЮЗ 2 24 км 8/6 400 м
[Cu Sc Ac cuf Ci sp]
+29.4 +25.5 80 +43 +47 опасность
перегрева
1012.8 998.9
15 24.05 СВ 2 24 км гроза без осадков 9/6 400 м
[Cb cap Ac trans]
+34.5 +24.4 56 +47 +50 опасность
перегрева
1008.8 995.2
18 24.05 В 2 12 км гроза, ливневой дождь 9/6 360 м
[Cb cap Ac trans]
+23.7 +22.7 94 +31 +31 очень
душно
1010.7 996.6 +34.3 23
21 24.05 штиль 0 10 км в посл. час дождь {гроза} 9/4 360 м
[Sc Ac As]
+25.0 +23.6 92 +34 +34 очень
душно
1011.7 997.7
03 25.05 СВ 1 12 км 9/0
[Ac trans]
+25.5 +24.4 94 +36 +36 очень
душно
1011.3 997.3
06 25.05 штиль 0 12 км 9/5 360 м
[Sc Ac trans]
+25.5 +24.8 96 +36 +36 очень
душно
1011.6 997.6 +23.2 24

 

Местоположение метеостанции Кет-Крачи (Гана): широта 7.82 долгота -0.03 высота над уровнем моря 122 м.

В архиве по умолчанию представлена погода в Кет-Крачи за последнюю неделю. Архивные данные за месяц целиком и за предыдущие месяцы, начиная с января 2011 года, Вы можете получить, выбрав интересующий диапазон дат из раскрывающегося списка и нажав кнопку "Ввод!".


*Определитесь, кто Вы:
робот инопланетянин человек

Внимание! Время в таблицах - всемирное. Для получения местного времени необходимо прибавить поправку, которая равна 1 ч.

Смотрите также архив погоды в соседних городах и на ближайших метеорологических станциях:

Погода в Атакпаме (Того) (130 км)
Погода в Хо (Гана) (146 км)
Погода в Абетифи (Гана) (151 км)
Погода в Йенди (Гана) (181 км)
Погода в Сокоде (Того) (183 км)
Погода в Акюсе (Гана) (192 км)
Погода в Кофоридуа (Гана) (195 км)
Погода в Тамале (Гана) (207 км)
Погода в Акатзи (Гана) (210 км)
Погода в Кумаси (Гана) (212 км)

Пояснения к столбцам:

Ветер - указаны скорость ветра в м/с - средняя за 10 мин, порывы в срок и между сроками (в фигурных скобках) и направление, откуда дует ветер: С - северный, СВ - северо-восточный, В - восточный, ЮВ - юго-восточный, Ю - южный, ЮЗ - юго-западный, З - западный, СЗ - северо-западный.
Видимость - горизонтальная дальность видимости в метрах или километрах. При видимости от 1 до 10 км при отсутствии осадков обычно наблюдается дымка, при ухудшении видимости до 1 км и менее - туман. В сухую погоду видимость может ухудшаться дымом, пылью или мглою.
Явления - указаны атмосферные явления, наблюдавшиеся в срок или в последний час перед сроком; фигурными скобками обозначены явления, наблюдавшиеся между сроками (за 1-3 часа до срока); квадратными скобками обозначены град или гололедные отложения с указанием их диаметра в мм.
Облачность - указаны через наклонную черту общая и нижняя облачность в баллах и высота нижней границы облаков в метрах; квадратными скобками обозначены формы облаков: Ci - перистые, Cs - перисто-слоистые, Cc - перисто-кучевые, Ac - высококучевые, As - высокослоистые, Sc - слоисто-кучевые, Ns - слоисто-дождевые, Cu - кучевые, Cb - кучево-дождевые. Подробнее классификацию облаков см. в Атласе облаков (PDF).
T - Температура воздуха - температура, измеренная на высоте 2 м над землей.
Td - Температура точки росы - температура, при понижении до которой содержащийся в воздухе водяной пар достигнет насыщения.
f - Относительная влажность воздуха - влажноcть воздуха, измеренная на высоте 2 м над землей.
Te - Эффективная температура - температура, которую ощущает одетый по сезону человек в тени. Характеристика душности погоды. При расчете учитывается влияние влажности воздуха и скорости ветра на теплоощущения человека.
Tes - Эффективная температура на солнце - температура, которую ощущает человек, с поправкой на солнечный нагрев. Характеристика знойности погоды. Зависит от высоты солнца над горизонтом, облачности и скорости ветра. Ночью, в пасмурную погоду, а также при ветре 12 м/с и более поправка равна нулю.
P - Атмосферное давление - приведенное к уровню моря атмосферное давление.
Po - Атмосферное давление - измеренное на уровне метеостанции атмосферное давление.
Tmin - Минимальная температура - минимум температуры воздуха на высоте 2 м над землей.
Tmax - Максимальная температура - максимум температуры воздуха на высоте 2 м над землей.
R - Количество осадков - Количество выпавших осадков за период времени, мм. При наведении курсора мыши на число - период времени, за который выпало указанное количество осадков.
R24 - Количество осадков - Количество выпавших осадков за 24 часа, мм.
S - Снежный покров - Высота снежного покрова, см. При наведении курсора мыши на число - состояние снежного покрова и степень покрытия местности в баллах.